Home   Weather   Resistencia   Past weeks

Flag for Argentina Past Weather in Resistencia, Chaco, Argentina — Yesterday and Last 2 Weeks

Now
63 °F

Clear.


Feels Like: 63 °F
Forecast: 63 / 85 °F
Wind: 7 mph from Northeast

Location: Resistencia Aero.

Current Time: Jul 28, 2017 at 3:50:46 am

Latest Report: Jul 28, 2017 at 3:00 am


Visibility: 5 mi

Pressure: 29.98 "Hg

Humidity: 73%

Dew Point: 54 °F

Location of ResistenciaLocation

Past Weather in Resistencia — Graph

°F

Resistencia Temperature Yesterday

Maximum temperature yesterday: 90 °F (at 3:00 pm)
Minimum temperature yesterday: 59 °F (at 5:00 am)
Average temperature yesterday: 72 °F

High & Low Weather Summary for the Past Weeks

 TemperatureHumidityPressure
High90 °F (Jul 23, 3:00 pm)100% (Jul 17, 7:00 am)30.60 "Hg (Jul 17, 7:00 am)
Low28 °F (Jul 18, 4:00 am)20% (Jul 18, 2:00 pm)29.59 "Hg (Jul 15, 2:30 pm)
Average63 °F63%30.06 "Hg
* Reported Jul 13 2:00 am — Jul 28 2:00 am, Resistencia. Weather by CustomWeather, © 2017

Note: Actual official high and low records may vary slightly from our data, if they occured in-between our weather recording intervals... More about our weather records

Advertising

Resistencia Weather History for the Previous 24 Hours

Scroll right to see more
 ConditionsComfort  
Time TempWeatherWind HumidityBarometerVisibility
2:00 am
Fri, Jul 28
64 °FMild.7 mph68%29.98 "Hg5 mi
1:00 am66 °FClear.8 mph64%29.98 "Hg5 mi
12:00 am66 °FClear.8 mph64%29.98 "Hg4 mi
11:00 pm
Thu, Jul 27
66 °FClear.7 mph68%29.98 "Hg4 mi
10:00 pm70 °FClear.10 mph60%29.98 "Hg4 mi
9:00 pm73 °FClear.10 mph57%29.98 "Hg4 mi
8:00 pm73 °FClear.8 mph57%29.98 "Hg3 mi
7:00 pm75 °FClear.7 mph50%29.98 "Hg3 mi
6:00 pm84 °FClear.10 mph31%29.98 "Hg5 mi
5:00 pm86 °FClear.16 mph27%29.95 "Hg4 mi
4:00 pm88 °FClear.14 mph25%29.98 "Hg4 mi
3:00 pm90 °FClear.15 mph27%29.98 "Hg5 mi
2:00 pm88 °FClear.16 mph29%30.01 "Hg4 mi
1:00 pm86 °FClear.15 mph31%30.04 "Hg4 mi
12:00 pm82 °FClear.17 mph37%30.07 "Hg4 mi
11:00 am79 °FClear.13 mph45%30.09 "Hg4 mi
10:00 am72 °FClear.10 mph57%30.09 "Hg4 mi
9:00 am63 °FClear.9 mph77%30.07 "Hg4 mi
8:00 am59 °FClear.7 mph82%30.07 "Hg4 mi
7:00 am59 °FClear.7 mph82%30.04 "Hg10 mi
6:00 am61 °FClear.7 mph83%30.04 "Hg10 mi
5:00 am59 °FClear.5 mph88%30.04 "Hg10 mi
4:00 am63 °FClear.8 mph77%30.04 "Hg10 mi
3:00 am63 °FClear.6 mph77%30.07 "Hg10 mi
Weather by CustomWeather, © 2017

See weather overviewHow to use our weather pages